DW4479 Weather Reports


Display with metric or nautical units.
time (UTC)temp
F
wind
direction
speed
MPH
gust
MPH
rain 1hr
in
rain 24hr
in
rain mn
in
humidity
%
barometer
mb
20180716080451 70 171 0.0 0.0 0.00 0.00 0.00 81 1010.3
20180716074947 69 170 0.0 0.0 0.00 0.00 0.00 82 1010.4
20180716073443 68 170 0.0 0.0 0.00 0.00 0.00 83 1010.3
20180716071939 67 171 0.0 0.0 0.00 0.00 0.00 86 1010.4
20180716070439 66 171 0.0 0.0 0.00 0.00 0.00 89 1010.5
20180716064932 65 168 0.0 0.0 0.00 0.00 0.00 90 1010.5
20180716063430 65 168 0.0 0.0 0.00 0.00 0.00 92 1010.5
20180716061931 64 167 0.0 0.0 0.00 0.00 0.00 93 1010.5
20180716060428 63 167 0.0 0.0 0.00 0.00 0.00 94 1010.6
20180716054928 63 167 0.0 0.0 0.00 0.00 0.00 93 1010.5
20180716053422 62 167 0.0 0.0 0.00 0.00 0.00 93 1010.5
20180716051922 61 167 0.0 0.0 0.00 0.00 0.00 92 1010.3
20180716050420 61 167 0.0 0.0 0.00 0.00 0.00 92 1010.4
20180716044920 62 167 0.0 0.0 0.00 0.00 0.00 93 1010.5
20180716043414 61 167 0.0 0.0 0.00 0.00 0.00 92 1010.5
20180716041914 62 167 0.0 0.0 0.00 0.00 0.00 91 1010.5
20180716040410 63 167 0.0 0.0 0.00 0.00 0.00 92 1010.6
20180716034912 63 167 0.0 0.0 0.00 0.00 0.00 92 1010.6
20180716033406 63 167 0.0 0.0 0.00 0.00 0.00 92 1010.8
20180716031906 63 167 0.0 0.0 0.00 0.00 0.00 92 1010.8
20180716030404 63 167 0.0 0.0 0.00 0.00 0.00 91 1010.9
20180716024904 63 167 0.0 0.0 0.00 0.00 0.00 91 1010.9
20180716023404 63 167 0.0 0.0 0.00 0.00 0.00 91 1011.0
20180716021902 63 167 0.0 0.0 0.00 0.00 0.00 91 1011.0
20180716020359 63 167 0.0 0.0 0.00 0.00 0.00 90 1011.1
20180716014903 63 167 0.0 0.0 0.00 0.00 0.00 90 1011.2
20180716013356 64 167 0.0 0.0 0.00 0.00 0.00 90 1011.3
20180716011901 64 167 0.0 0.0 0.00 0.00 0.00 89 1011.3
20180716010355 64 167 0.0 0.0 0.00 0.00 0.00 89 1011.4
20180716004858 64 167 0.0 0.0 0.00 0.00 0.00 88 1011.5
20180716003353 64 167 0.0 0.0 0.00 0.00 0.00 87 1011.7
20180716001853 64 167 0.0 0.0 0.00 0.00 0.00 87 1011.8
20180716000350 64 186 0.0 0.0 0.00 0.00 0.00 86 1012.0
20180715234849 65 109 0.0 0.0 0.00 0.00 0.00 86 1012.0
20180715233345 65 155 0.0 0.0 0.00 0.00 0.00 86 1012.1
20180715231845 65 146 0.0 0.0 0.00 0.00 0.00 85 1012.1
20180715230343 65 153 0.0 0.0 0.00 0.00 0.00 85 1012.2
20180715224844 65 148 0.0 0.0 0.00 0.00 0.00 84 1012.2
20180715223345 65 149 0.0 0.0 0.00 0.00 0.00 83 1012.2
20180715221842 65 142 0.0 0.0 0.00 0.00 0.00 83 1012.2
20180715220341 65 142 0.0 0.0 0.00 0.00 0.00 82 1012.2
20180715214842 65 173 0.0 0.0 0.00 0.00 0.00 82 1012.1
20180715213344 65 173 0.0 0.0 0.00 0.00 0.00 81 1012.1
20180715211839 66 134 0.0 0.0 0.00 0.00 0.00 80 1012.2
20180715210342 66 152 0.0 0.0 0.00 0.00 0.00 79 1012.1
20180715204842 66 179 0.0 0.0 0.00 0.00 0.00 78 1012.1
20180715203340 66 180 0.0 0.0 0.00 0.00 0.00 77 1012.1
20180715201837 67 179 0.0 0.0 0.00 0.00 0.00 77 1011.9
20180715200338 67 180 0.0 0.0 0.00 0.00 0.00 76 1011.8
20180715194836 67 198 0.0 0.0 0.00 0.00 0.00 75 1011.8
20180715193336 68 150 0.0 0.0 0.00 0.00 0.00 74 1011.6
20180715191841 69 173 0.0 0.0 0.00 0.00 0.00 72 1011.5
20180715190336 70 170 0.0 0.0 0.00 0.00 0.00 70 1011.5
20180715184836 72 170 0.0 0.0 0.00 0.00 0.00 68 1011.6
20180715183335 73 184 0.0 0.0 0.00 0.00 0.00 66 1011.4
20180715181837 73 164 0.0 0.0 0.00 0.00 0.00 64 1011.7
20180715180437 75 115 0.0 0.0 0.00 0.00 0.00 62 1011.6
20180715174835 76 174 0.0 0.0 0.00 0.00 0.00 61 1011.5
20180715173334 76 132 0.0 0.0 0.00 0.00 0.00 60 1011.5
20180715171831 76 164 0.0 0.0 0.00 0.00 0.00 62 1011.6
20180715170330 76 119 0.0 0.0 0.00 0.00 0.00 62 1011.8
20180715164825 75 185 0.0 0.0 0.00 0.00 0.00 65 1012.0
20180715163323 74 197 1.0 0.0 0.00 0.00 0.00 67 1012.2
20180715161823 74 185 1.0 0.0 0.00 0.00 0.00 69 1012.4
20180715160321 74 132 0.0 0.0 0.00 0.00 0.00 69 1012.6
20180715154820 74 199 0.0 0.0 0.00 0.00 0.00 71 1012.8
20180715153319 73 175 2.0 0.0 0.00 0.00 0.00 72 1012.9
20180715151815 75 168 0.0 0.0 0.00 0.00 0.00 70 1012.9
20180715150314 74 304 0.0 0.0 0.00 0.00 0.00 72 1013.0
20180715144813 74 211 0.0 0.0 0.00 0.00 0.00 72 1013.1
20180715143314 73 192 1.0 0.0 0.00 0.00 0.00 73 1013.2
20180715141812 74 134 1.0 0.0 0.00 0.00 0.00 71 1013.2
20180715140311 73 147 3.0 0.0 0.00 0.00 0.00 71 1013.3
20180715134812 74 184 1.0 0.0 0.00 0.00 0.00 72 1013.4
20180715133308 73 163 2.0 0.0 0.00 0.00 0.00 72 1013.4
20180715131808 74 185 1.0 0.0 0.00 0.00 0.00 72 1013.5
20180715130310 73 138 0.0 0.0 0.00 0.00 0.00 74 1013.7
20180715124806 72 163 1.0 0.0 0.00 0.00 0.00 75 1013.7
20180715123307 73 173 0.0 0.0 0.00 0.00 0.00 73 1013.7
20180715121803 74 187 0.0 0.0 0.00 0.00 0.00 71 1013.9
20180715120300 74 244 0.0 0.0 0.00 0.00 0.00 73 1014.0
20180715114800 73 190 1.0 0.0 0.00 0.00 0.00 73 1014.0
20180715113256 73 203 0.0 0.0 0.00 0.00 0.00 74 1014.2
20180715111752 73 179 1.0 0.0 0.00 0.00 0.00 75 1014.2
20180715110250 73 187 0.0 0.0 0.00 0.00 0.00 75 1014.3
20180715104745 71 157 2.0 0.0 0.00 0.00 0.00 77 1014.3
20180715103244 70 198 1.0 0.0 0.00 0.00 0.00 79 1014.3
20180715101742 70 151 1.0 0.0 0.00 0.00 0.00 80 1014.3
20180715100238 69 115 2.0 0.0 0.00 0.00 0.00 80 1014.4
20180715094739 70 138 1.0 0.0 0.00 0.00 0.00 79 1014.4
20180715093229 70 180 0.0 0.0 0.00 0.00 0.00 80 1014.5
20180715091729 70 360 0.0 0.0 0.00 0.00 0.00 81 1014.6
20180715090226 69 148 0.0 0.0 0.00 0.00 0.00 82 1014.5
20180715084718 68 150 0.0 0.0 0.00 0.00 0.00 83 1014.5
20180715083218 68 190 0.0 0.0 0.00 0.00 0.00 84 1014.5
20180715081713 67 168 0.0 0.0 0.00 0.00 0.00 85 1014.7